GW7110 Weather Reports


time (UTC)temp
F
wind
direction
speed
knots
gust
knots
rain 1hr
in
rain 24hr
in
rain mn
in
humidity
%
barometer
mb
20260505102129 59 293 0.0 0.9 0.00 0.00 0.00 71 29.9
20260505101630 59 289 0.0 0.9 0.00 0.00 0.00 70 29.9
20260505101128 59 10 0.0 0.9 0.00 0.00 0.00 69 29.9
20260505100628 60 0 0.0 0.0 0.00 0.00 0.00 69 29.9
20260505100128 60 251 0.0 0.0 0.00 0.00 0.00 68 29.9
20260505095627 60 314 0.9 1.7 0.00 0.00 0.00 69 29.9
20260505095129 60 270 0.9 2.6 0.00 0.00 0.00 69 29.9
20260505094627 58 0 0.0 0.0 0.00 0.00 0.00 73 29.9
20260505094128 58 0 0.0 0.0 0.00 0.00 0.00 73 29.9
20260505093627 58 0 0.0 0.0 0.00 0.00 0.00 73 29.9
20260505093127 58 0 0.0 0.0 0.00 0.00 0.00 73 29.9
20260505092627 58 0 0.0 0.0 0.00 0.00 0.00 73 29.9
20260505092129 58 0 0.0 0.0 0.00 0.00 0.00 73 29.9
20260505091630 58 0 0.0 0.0 0.00 0.00 0.00 73 29.9
20260505091128 58 0 0.0 0.0 0.00 0.00 0.00 73 29.9
20260505090627 58 0 0.0 0.0 0.00 0.00 0.00 73 29.9
20260505090127 58 0 0.0 0.0 0.00 0.00 0.00 73 29.9
20260505085628 58 0 0.0 0.0 0.00 0.00 0.00 73 29.9
20260505085127 58 0 0.0 0.0 0.00 0.00 0.00 73 29.9
20260505084628 58 0 0.0 0.0 0.00 0.00 0.00 73 29.9
20260505084128 58 0 0.0 0.0 0.00 0.00 0.00 73 29.9
20260505083629 58 0 0.0 0.0 0.00 0.00 0.00 73 29.9
20260505083127 58 0 0.0 0.0 0.00 0.00 0.00 73 29.9
20260505082628 58 0 0.0 0.0 0.00 0.00 0.00 73 29.9
20260505082127 58 0 0.0 0.0 0.00 0.00 0.00 73 29.9
20260505081628 58 0 0.0 0.0 0.00 0.00 0.00 73 29.9
20260505081129 58 0 0.0 0.0 0.00 0.00 0.00 73 29.9
20260505080628 58 0 0.0 0.0 0.00 0.00 0.00 73 29.9
20260505080127 58 0 0.0 0.0 0.00 0.00 0.00 73 29.9
20260505075627 58 0 0.0 0.0 0.00 0.00 0.00 73 29.9
20260505075128 58 0 0.0 0.0 0.00 0.00 0.00 73 29.9
20260505074140 58 0 0.0 0.0 0.00 0.00 0.00 73 29.9
20260505073629 58 0 0.0 0.0 0.00 0.00 0.00 73 29.9
20260505073127 58 13 0.0 0.9 0.00 0.00 0.00 72 29.9
20260505072628 59 0 0.0 0.0 0.00 0.00 0.00 72 29.9
20260505072128 59 0 0.0 0.0 0.00 0.00 0.00 70 29.9
20260505071627 59 0 0.0 0.0 0.00 0.00 0.00 70 29.9
20260505071128 59 0 0.0 0.0 0.00 0.00 0.00 70 29.9
20260505070628 59 2 0.0 0.9 0.00 0.00 0.00 70 29.9
20260505070127 59 0 0.0 0.0 0.00 0.00 0.00 70 29.9
20260505065627 59 0 0.0 0.0 0.00 0.00 0.00 70 29.9
20260505065128 59 0 0.0 0.0 0.00 0.00 0.00 70 29.9
20260505064627 59 6 0.0 0.9 0.00 0.00 0.00 69 29.9
20260505064127 60 0 0.0 0.0 0.00 0.00 0.00 69 29.9
20260505063627 60 0 0.0 0.0 0.00 0.00 0.00 68 29.9
20260505063128 60 354 0.0 0.9 0.00 0.00 0.00 68 29.9
20260505062628 60 0 0.0 0.0 0.00 0.00 0.00 66 29.9
20260505062127 61 0 0.0 0.0 0.00 0.00 0.00 66 29.9
20260505061628 61 0 0.0 0.0 0.00 0.00 0.00 66 29.9
20260505061128 61 0 0.0 0.0 0.00 0.00 0.00 66 29.9
20260505060628 61 0 0.0 0.0 0.00 0.00 0.00 66 29.9
20260505060127 61 0 0.0 0.0 0.00 0.00 0.00 65 29.9
20260505055628 62 0 0.0 0.0 0.00 0.00 0.00 65 29.9
20260505055127 62 316 0.0 0.0 0.00 0.00 0.00 65 29.9
20260505054628 62 0 0.0 0.0 0.00 0.00 0.00 65 29.9
20260505054127 62 0 0.0 0.0 0.00 0.00 0.00 64 29.9
20260505053629 62 0 0.0 0.0 0.00 0.00 0.00 63 29.9
20260505053128 63 0 0.0 0.0 0.00 0.00 0.00 63 29.9
20260505052628 63 0 0.0 0.0 0.00 0.00 0.00 62 29.9
20260505052130 63 0 0.0 0.0 0.00 0.00 0.00 62 29.9
20260505051628 63 0 0.0 0.0 0.00 0.00 0.00 62 29.9
20260505051129 64 280 0.0 0.9 0.00 0.00 0.00 61 29.9
20260505050627 64 0 0.0 0.0 0.00 0.00 0.00 61 29.9
20260505050127 64 219 0.0 1.7 0.00 0.00 0.00 61 29.9
20260505041627 64 0 0.0 0.0 0.00 0.00 0.00 62 29.9
20260505041129 64 220 0.0 0.9 0.00 0.00 0.00 62 29.9
20260505040627 64 249 0.0 0.9 0.00 0.00 0.00 62 29.9
20260505040127 64 233 0.0 0.9 0.00 0.00 0.00 63 29.9
20260505035629 64 0 0.0 0.0 0.00 0.00 0.00 64 29.9
20260505035127 64 0 0.0 0.0 0.00 0.00 0.00 66 29.9
20260505034627 64 0 0.0 0.0 0.00 0.00 0.00 67 29.9
20260505034128 65 0 0.0 0.0 0.00 0.00 0.00 66 29.9
20260505033627 65 0 0.0 0.0 0.00 0.00 0.00 63 29.9
20260505033127 65 0 0.0 0.0 0.00 0.00 0.00 62 29.9
20260505032627 65 30 0.0 0.0 0.00 0.00 0.00 62 29.9
20260505032127 66 37 0.0 0.9 0.00 0.00 0.00 61 29.9
20260505031628 66 308 0.0 1.7 0.00 0.00 0.00 61 29.9
20260505031128 66 0 0.0 0.0 0.00 0.00 0.00 61 29.9
20260505030629 66 4 0.0 0.9 0.00 0.00 0.00 60 29.9
20260505030127 66 0 0.0 0.0 0.00 0.00 0.00 60 29.9
20260505025627 66 345 0.0 1.7 0.00 0.00 0.00 60 29.9
20260505025127 66 0 0.0 0.0 0.00 0.00 0.00 59 29.9
20260505024628 66 289 0.0 0.9 0.00 0.00 0.00 58 29.9
20260505024128 66 251 0.0 0.0 0.00 0.00 0.00 58 29.9
20260505023628 66 0 0.0 0.0 0.00 0.00 0.00 58 29.9
20260505023128 66 0 0.0 0.0 0.00 0.00 0.00 57 29.9
20260505022628 67 0 0.0 0.0 0.00 0.00 0.00 57 29.9
20260505022130 67 0 0.0 0.0 0.00 0.00 0.00 56 29.9
20260505021629 68 0 0.0 0.0 0.00 0.00 0.00 56 29.9
20260505021127 68 0 0.0 0.0 0.00 0.00 0.00 55 29.9
20260505020628 68 0 0.0 0.0 0.00 0.00 0.00 54 29.9
20260505020127 68 0 0.0 0.0 0.00 0.00 0.00 53 29.9
20260505015628 69 0 0.0 0.0 0.00 0.00 0.00 53 29.9
20260505015128 69 0 0.0 0.0 0.00 0.00 0.00 52 29.9
20260505014627 69 357 0.0 0.9 0.00 0.00 0.00 52 29.9
20260505014128 68 300 1.7 2.6 0.00 0.00 0.00 53 29.9
20260505013629 68 0 0.0 0.0 0.00 0.00 0.00 54 29.9
20260505013128 68 271 0.0 0.9 0.00 0.00 0.00 54 29.9
20260505012628 69 356 0.0 0.0 0.00 0.00 0.00 54 29.9
20260505012128 69 0 0.0 0.0 0.00 0.00 0.00 54 29.9
20260505011628 69 0 0.0 0.0 0.00 0.00 0.00 54 29.9
20260505011129 70 0 0.0 0.0 0.00 0.00 0.00 54 29.9
20260505010628 70 0 0.0 0.0 0.00 0.00 0.00 53 29.9
20260505010127 71 202 0.9 1.7 0.00 0.00 0.00 52 29.9
20260505005628 71 0 0.0 0.0 0.00 0.00 0.00 53 29.9
20260505005130 71 219 0.0 0.9 0.00 0.00 0.00 53 29.9
20260505004628 71 0 0.0 0.0 0.00 0.00 0.00 52 29.9
20260505004127 72 355 0.0 0.0 0.00 0.00 0.00 52 29.9
20260505003627 72 245 0.0 1.7 0.00 0.00 0.00 52 29.9
20260505003127 72 238 0.0 1.7 0.00 0.00 0.00 52 29.9
20260505002627 73 0 0.0 0.0 0.00 0.00 0.00 52 29.9
20260505002127 73 0 0.0 0.0 0.00 0.00 0.00 51 29.9
20260505001628 73 245 0.0 1.7 0.00 0.00 0.00 50 29.9
20260505001128 74 0 0.0 0.0 0.00 0.00 0.00 51 29.9
20260505000628 74 190 0.0 0.9 0.00 0.00 0.00 50 29.9
20260505000127 75 0 0.0 0.0 0.00 0.00 0.00 48 29.9
20260504235628 75 229 0.0 0.0 0.00 0.00 0.00 46 29.9
20260504235128 76 202 0.9 1.7 0.00 0.00 0.00 45 29.9
20260504234628 76 198 0.0 1.7 0.00 0.00 0.00 44 29.9
20260504234128 77 266 0.0 0.9 0.00 0.00 0.00 44 29.9
20260504233627 77 281 0.0 1.7 0.00 0.00 0.00 43 29.9
20260504233127 77 309 0.0 0.9 0.00 0.00 0.00 46 29.9
20260504232628 78 252 0.9 1.7 0.00 0.00 0.00 45 29.9
20260504232128 78 246 0.0 0.9 0.00 0.00 0.00 44 29.9
20260504231627 78 249 0.0 1.7 0.00 0.00 0.00 45 29.9
20260504231128 78 207 0.9 2.6 0.00 0.00 0.00 43 29.9
20260504230627 79 176 0.9 1.7 0.00 0.00 0.00 42 29.9
20260504230127 78 232 0.9 2.6 0.00 0.00 0.00 41 29.9
20260504225628 79 226 0.9 2.6 0.00 0.00 0.00 44 29.9
20260504225128 79 194 0.0 0.9 0.00 0.00 0.00 44 29.9
20260504224629 78 197 0.9 1.7 0.00 0.00 0.00 44 29.9
20260504224128 78 248 0.9 2.6 0.00 0.00 0.00 44 29.9
20260504223628 78 242 0.0 1.7 0.00 0.00 0.00 43 29.9
20260504223128 79 228 0.9 2.6 0.00 0.00 0.00 42 29.9
20260504222628 79 253 2.6 4.3 0.00 0.00 0.00 42 29.9
20260504222130 79 257 0.9 2.6 0.00 0.00 0.00 42 29.9
20260504221628 80 249 1.7 4.3 0.00 0.00 0.00 41 29.9
20260504221127 81 262 0.9 2.6 0.00 0.00 0.00 41 29.9
20260504220628 81 227 0.9 2.6 0.00 0.00 0.00 40 29.9
20260504220129 80 273 0.9 2.6 0.00 0.00 0.00 41 29.9
20260504215627 80 212 1.7 3.5 0.00 0.00 0.00 41 29.9
20260504215128 80 250 1.7 3.5 0.00 0.00 0.00 40 29.9
20260504214627 80 270 1.7 2.6 0.00 0.00 0.00 41 29.9
20260504214128 80 209 0.0 1.7 0.00 0.00 0.00 41 29.9
20260504213627 79 269 1.7 5.2 0.00 0.00 0.00 40 29.9
20260504213127 79 260 2.6 4.3 0.00 0.00 0.00 40 29.9
20260504212627 78 275 1.7 3.5 0.00 0.00 0.00 43 29.9
20260504212128 77 274 1.7 2.6 0.00 0.00 0.00 44 29.9
20260504211628 77 253 0.9 2.6 0.00 0.00 0.00 45 29.9
20260504211128 78 273 1.7 3.5 0.00 0.00 0.00 43 29.9
20260504210627 77 277 1.7 2.6 0.00 0.00 0.00 46 29.9
20260504210127 78 248 0.9 4.3 0.00 0.00 0.00 46 29.9
20260504205628 77 276 0.9 1.7 0.00 0.00 0.00 45 29.9
20260504205127 78 156 0.0 0.9 0.00 0.00 0.00 46 29.9
20260504204627 79 283 1.7 3.5 0.00 0.00 0.00 44 29.9
20260504204127 79 272 1.7 3.5 0.00 0.00 0.00 45 29.9
20260504203627 79 253 0.9 3.5 0.00 0.00 0.00 45 29.9
20260504203127 79 261 1.7 4.3 0.00 0.00 0.00 45 29.9
20260504202627 79 199 0.9 2.6 0.00 0.00 0.00 44 29.9
20260504202128 78 202 0.9 1.7 0.00 0.00 0.00 45 29.9
20260504201628 78 254 1.7 5.2 0.00 0.00 0.00 46 29.9
20260504201128 78 210 1.7 3.5 0.00 0.00 0.00 45 29.9
20260504200628 79 266 0.9 1.7 0.00 0.00 0.00 44 29.9
20260504200129 78 186 0.0 1.7 0.00 0.00 0.00 45 29.9
20260504195628 78 250 0.9 3.5 0.00 0.00 0.00 45 29.9
20260504195127 78 176 0.9 1.7 0.00 0.00 0.00 45 29.9
20260504194629 79 184 0.9 3.5 0.00 0.00 0.00 44 30.0
20260504194129 78 255 0.9 3.5 0.00 0.00 0.00 44 30.0
20260504193628 78 190 0.9 1.7 0.00 0.00 0.00 45 30.0
20260504193128 78 220 0.9 2.6 0.00 0.00 0.00 46 30.0
20260504192628 78 286 1.7 2.6 0.00 0.00 0.00 46 30.0
20260504192128 78 262 1.7 3.5 0.00 0.00 0.00 48 30.0
20260504191628 78 183 0.9 2.6 0.00 0.00 0.00 46 30.0
20260504191127 78 206 0.0 1.7 0.00 0.00 0.00 47 30.0
20260504190628 78 200 0.0 1.7 0.00 0.00 0.00 47 30.0
20260504190128 78 182 0.9 3.5 0.00 0.00 0.00 49 30.0
20260504185628 77 185 0.9 2.6 0.00 0.00 0.00 47 30.0
20260504185127 78 215 0.9 3.5 0.00 0.00 0.00 46 30.0
20260504184628 78 238 0.9 1.7 0.00 0.00 0.00 47 30.0
20260504184130 77 252 0.9 3.5 0.00 0.00 0.00 48 30.0
20260504183628 78 177 0.0 0.0 0.00 0.00 0.00 49 30.0
20260504183129 78 199 1.7 2.6 0.00 0.00 0.00 47 30.0
20260504182628 78 197 0.9 4.3 0.00 0.00 0.00 46 30.0
20260504182128 77 204 0.9 1.7 0.00 0.00 0.00 49 30.0
20260504181628 77 147 0.0 1.7 0.00 0.00 0.00 48 30.0
20260504181130 77 253 0.0 2.6 0.00 0.00 0.00 49 30.0
20260504180629 76 217 0.9 2.6 0.00 0.00 0.00 48 30.0
20260504180128 76 260 0.9 4.3 0.00 0.00 0.00 48 30.0
20260504175627 76 223 1.7 3.5 0.00 0.00 0.00 49 30.0
20260504175128 75 250 0.9 2.6 0.00 0.00 0.00 48 30.0
20260504174628 76 258 1.7 2.6 0.00 0.00 0.00 49 30.0
20260504174127 76 201 0.9 1.7 0.00 0.00 0.00 48 30.0
20260504173627 75 245 1.7 3.5 0.00 0.00 0.00 50 30.0
20260504173129 75 210 0.9 4.3 0.00 0.00 0.00 48 30.0
20260504172630 75 257 0.0 2.6 0.00 0.00 0.00 48 30.0
20260504172128 75 224 0.0 1.7 0.00 0.00 0.00 50 30.0
20260504171628 75 248 0.9 2.6 0.00 0.00 0.00 49 30.0
20260504171128 74 217 0.0 1.7 0.00 0.00 0.00 49 30.0
20260504170628 74 287 0.0 1.7 0.00 0.00 0.00 51 30.0
20260504170128 73 274 0.0 0.0 0.00 0.00 0.00 52 30.0
20260504160128 69 224 0.9 2.6 0.00 0.00 0.00 52 30.0
20260504151128 65 184 0.0 1.7 0.00 0.00 0.00 57 30.0
20260504150150 64 314 0.9 1.7 0.00 0.00 0.00 57 30.0
20260504141127 58 299 0.9 1.7 0.00 0.00 0.00 71 30.1
20260504140257 57 284 1.7 1.7 0.00 0.00 0.00 73 30.1